| time (UTC) | temp F | wind direction | speed MPH | gust MPH | rain 1hr in | rain 24hr in | rain mn in | humidity % | barometer mb |
| 20260902163104 | 61 | 360 | 0.0 | 0.0 | 0.00 | 0.20 | 0.20 | 81 | 1015.6 |
| 20260902161557 | 61 | 360 | 0.0 | 0.0 | 0.00 | 0.20 | 0.20 | 83 | 1015.5 |
| 20260902160059 | 61 | 360 | 0.0 | 0.0 | 0.01 | 0.20 | 0.20 | 83 | 1015.4 |
| 20260902154555 | 60 | 360 | 0.0 | 1.0 | 0.02 | 0.20 | 0.20 | 83 | 1015.4 |
| 20260902153051 | 60 | 360 | 0.0 | 0.0 | 0.03 | 0.20 | 0.20 | 83 | 1015.5 |
| 20260902151549 | 60 | 360 | 0.0 | 0.0 | 0.04 | 0.20 | 0.20 | 83 | 1015.3 |
| 20260902150047 | 60 | 360 | 0.0 | 3.0 | 0.04 | 0.19 | 0.19 | 84 | 1015.3 |
| 20260902144546 | 60 | 360 | 0.0 | 0.0 | 0.04 | 0.18 | 0.18 | 83 | 1015.2 |
| 20260902143046 | 60 | 360 | 0.0 | 0.0 | 0.05 | 0.17 | 0.17 | 83 | 1015.1 |
| 20260902141545 | 60 | 360 | 0.0 | 0.0 | 0.05 | 0.16 | 0.16 | 84 | 1014.8 |
| 20260902140043 | 60 | 360 | 0.0 | 0.0 | 0.05 | 0.15 | 0.15 | 84 | 1014.5 |
| 20260902134545 | 60 | 360 | 0.0 | 0.0 | 0.06 | 0.14 | 0.14 | 84 | 1014.4 |
| 20260902133044 | 60 | 360 | 0.0 | 0.0 | 0.05 | 0.12 | 0.12 | 84 | 1014.5 |
| 20260902131543 | 60 | 360 | 0.0 | 0.0 | 0.07 | 0.11 | 0.11 | 84 | 1014.5 |
| 20260902130043 | 60 | 360 | 0.0 | 0.0 | 0.08 | 0.10 | 0.10 | 85 | 1014.4 |
| 20260902124542 | 60 | 360 | 0.0 | 0.0 | 0.07 | 0.08 | 0.08 | 85 | 1014.2 |
| 20260902123049 | 60 | 360 | 0.0 | 0.0 | 0.07 | 0.07 | 0.07 | 85 | 1014.3 |
| 20260902121539 | 60 | 360 | 0.0 | 0.0 | 0.04 | 0.04 | 0.04 | 85 | 1014.3 |
| 20260902120038 | 60 | 360 | 0.0 | 0.0 | 0.02 | 0.02 | 0.02 | 86 | 1014.2 |
| 20260902114540 | 60 | 360 | 0.0 | 0.0 | 0.01 | 0.01 | 0.01 | 86 | 1014.1 |
| 20260902113044 | 60 | 360 | 0.0 | 0.0 | 0.00 | 0.00 | 0.00 | 86 | 1014.2 |
| 20260902111541 | 60 | 360 | 0.0 | 0.0 | 0.00 | 0.00 | 0.00 | 86 | 1014.2 |
| 20260902110043 | 60 | 360 | 0.0 | 0.0 | 0.00 | 0.00 | 0.00 | 86 | 1014.2 |
| 20260902104533 | 60 | 360 | 0.0 | 0.0 | 0.00 | 0.00 | 0.00 | 86 | 1014.3 |
| 20260902103030 | 60 | 360 | 0.0 | 0.0 | 0.00 | 0.00 | 0.00 | 86 | 1014.4 |
| 20260902101529 | 59 | 360 | 0.0 | 0.0 | 0.00 | 0.00 | 0.00 | 86 | 1014.5 |
| 20260902100026 | 59 | 360 | 0.0 | 0.0 | 0.00 | 0.00 | 0.00 | 86 | 1014.6 |
| 20260902094521 | 59 | 360 | 0.0 | 0.0 | 0.00 | 0.00 | 0.00 | 86 | 1014.7 |
| 20260902093018 | 59 | 360 | 0.0 | 0.0 | 0.00 | 0.00 | 0.00 | 86 | 1014.7 |
| 20260902091517 | 59 | 360 | 0.0 | 0.0 | 0.00 | 0.00 | 0.00 | 86 | 1014.8 |
| 20260902090017 | 58 | 360 | 0.0 | 0.0 | 0.00 | 0.00 | 0.00 | 86 | 1014.9 |
| 20260902084522 | 58 | 360 | 0.0 | 0.0 | 0.00 | 0.00 | 0.00 | 86 | 1015.0 |
| 20260902083015 | 58 | 360 | 0.0 | 0.0 | 0.00 | 0.00 | 0.00 | 86 | 1015.2 |
| 20260902081511 | 58 | 360 | 0.0 | 0.0 | 0.00 | 0.00 | 0.00 | 86 | 1015.0 |
| 20260902080010 | 57 | 360 | 0.0 | 0.0 | 0.00 | 0.00 | 0.00 | 86 | 1015.0 |
| 20260902074508 | 57 | 360 | 0.0 | 0.0 | 0.00 | 0.00 | 0.00 | 86 | 1015.0 |
| 20260902073006 | 57 | 360 | 0.0 | 0.0 | 0.00 | 0.00 | 0.00 | 86 | 1015.1 |
| 20260902071505 | 57 | 360 | 0.0 | 0.0 | 0.00 | 0.00 | 0.00 | 85 | 1015.0 |
| 20260902070003 | 56 | 360 | 0.0 | 0.0 | 0.00 | 0.00 | 0.00 | 85 | 1015.0 |
| 20260902064502 | 56 | 360 | 0.0 | 0.0 | 0.00 | 0.00 | 0.00 | 85 | 1014.9 |
| 20260902063002 | 56 | 360 | 0.0 | 0.0 | 0.00 | 0.00 | 0.00 | 84 | 1014.9 |
| 20260902061502 | 57 | 360 | 0.0 | 0.0 | 0.00 | 0.00 | 0.00 | 83 | 1014.7 |
| 20260902060109 | 57 | 360 | 0.0 | 0.0 | 0.00 | 0.00 | 0.00 | 83 | 1014.8 |
| 20260902054600 | 58 | 360 | 0.0 | 0.0 | 0.00 | 0.00 | 0.00 | 82 | 1014.9 |
| 20260902053116 | 58 | 360 | 0.0 | 0.0 | 0.00 | 0.00 | 0.00 | 81 | 1014.9 |
| 20260902051601 | 59 | 360 | 0.0 | 0.0 | 0.00 | 0.00 | 0.00 | 81 | 1014.8 |
| 20260902050113 | 59 | 360 | 0.0 | 0.0 | 0.00 | 0.00 | 0.00 | 80 | 1014.9 |
| 20260902044556 | 60 | 360 | 0.0 | 0.0 | 0.00 | 0.00 | 0.00 | 80 | 1014.7 |
| 20260902043100 | 60 | 360 | 0.0 | 0.0 | 0.00 | 0.00 | 0.00 | 80 | 1014.6 |
| 20260902041555 | 61 | 360 | 0.0 | 0.0 | 0.00 | 0.00 | 0.00 | 78 | 1014.6 |
| 20260902040055 | 61 | 360 | 0.0 | 0.0 | 0.00 | 0.00 | 0.00 | 78 | 1014.4 |
| 20260902034557 | 62 | 360 | 0.0 | 0.0 | 0.00 | 0.00 | 0.00 | 76 | 1014.3 |
| 20260902033056 | 63 | 360 | 0.0 | 0.0 | 0.00 | 0.00 | 0.00 | 73 | 1014.3 |
| 20260902031553 | 63 | 360 | 0.0 | 0.0 | 0.00 | 0.00 | 0.00 | 69 | 1014.2 |
| 20260902030052 | 64 | 360 | 0.0 | 0.0 | 0.00 | 0.00 | 0.00 | 67 | 1014.0 |
| 20260902024551 | 64 | 360 | 0.0 | 0.0 | 0.00 | 0.00 | 0.00 | 66 | 1014.0 |
| 20260902023055 | 65 | 360 | 0.0 | 0.0 | 0.00 | 0.00 | 0.00 | 65 | 1014.1 |
| 20260902021551 | 66 | 360 | 0.0 | 0.0 | 0.00 | 0.00 | 0.00 | 64 | 1013.9 |
| 20260902020054 | 67 | 360 | 0.0 | 1.0 | 0.00 | 0.00 | 0.00 | 62 | 1013.9 |
| 20260902014551 | 68 | 360 | 0.0 | 0.0 | 0.00 | 0.00 | 0.00 | 60 | 1014.0 |
| 20260902013050 | 68 | 360 | 0.0 | 1.0 | 0.00 | 0.00 | 0.00 | 59 | 1014.0 |
| 20260902011553 | 69 | 360 | 0.0 | 4.0 | 0.00 | 0.00 | 0.00 | 57 | 1013.9 |
| 20260902004548 | 70 | 161 | 0.0 | 3.0 | 0.00 | 0.00 | 0.00 | 55 | 1013.6 |
| 20260902003048 | 70 | 180 | 0.0 | 5.0 | 0.00 | 0.00 | 0.00 | 56 | 1013.5 |
| 20260902001547 | 70 | 312 | 0.0 | 1.0 | 0.00 | 0.00 | 0.00 | 55 | 1013.5 |
| 20260902000050 | 70 | 314 | 0.0 | 6.0 | 0.00 | 0.00 | 0.00 | 56 | 1013.6 |
| 20260901234546 | 70 | 355 | 0.0 | 1.0 | 0.00 | 0.00 | 0.00 | 54 | 1013.5 |
| 20260901233046 | 70 | 355 | 0.0 | 1.0 | 0.00 | 0.00 | 0.00 | 54 | 1013.4 |
| 20260901231545 | 70 | 355 | 0.0 | 3.0 | 0.00 | 0.00 | 0.00 | 56 | 1013.4 |
| 20260901230045 | 71 | 355 | 0.0 | 3.0 | 0.00 | 0.00 | 0.00 | 56 | 1013.4 |
| 20260901224551 | 71 | 67 | 0.0 | 1.0 | 0.00 | 0.00 | 0.00 | 54 | 1013.4 |
| 20260901223045 | 72 | 327 | 0.0 | 3.0 | 0.00 | 0.00 | 0.00 | 53 | 1013.5 |
| 20260901221554 | 72 | 321 | 0.0 | 4.0 | 0.00 | 0.00 | 0.00 | 53 | 1013.6 |
| 20260901220043 | 72 | 305 | 0.0 | 5.0 | 0.00 | 0.00 | 0.00 | 52 | 1013.5 |
| 20260901214554 | 71 | 317 | 0.0 | 4.0 | 0.00 | 0.00 | 0.00 | 54 | 1013.7 |
| 20260901213039 | 71 | 319 | 0.0 | 3.0 | 0.00 | 0.00 | 0.00 | 53 | 1013.6 |
| 20260901211539 | 72 | 319 | 0.0 | 4.0 | 0.00 | 0.00 | 0.00 | 52 | 1013.5 |
| 20260901210038 | 72 | 317 | 0.0 | 4.0 | 0.00 | 0.00 | 0.00 | 54 | 1013.3 |
| 20260901204539 | 70 | 319 | 0.0 | 1.0 | 0.00 | 0.00 | 0.00 | 57 | 1013.5 |
| 20260901203036 | 70 | 319 | 0.0 | 1.0 | 0.00 | 0.00 | 0.00 | 58 | 1013.7 |
| 20260901201535 | 70 | 319 | 0.0 | 1.0 | 0.00 | 0.00 | 0.00 | 59 | 1014.0 |
| 20260901200035 | 71 | 319 | 0.0 | 2.0 | 0.00 | 0.00 | 0.00 | 58 | 1014.1 |
| 20260901194537 | 71 | 319 | 0.0 | 3.0 | 0.00 | 0.00 | 0.00 | 57 | 1014.2 |
| 20260901193032 | 69 | 319 | 0.0 | 1.0 | 0.00 | 0.00 | 0.00 | 62 | 1014.1 |
| 20260901191536 | 67 | 319 | 0.0 | 1.0 | 0.00 | 0.00 | 0.00 | 71 | 1014.4 |
| 20260901190025 | 65 | 319 | 0.0 | 0.0 | 0.00 | 0.00 | 0.00 | 76 | 1014.7 |
| 20260901184523 | 65 | 319 | 0.0 | 0.0 | 0.00 | 0.00 | 0.00 | 76 | 1014.7 |
| 20260901183036 | 66 | 319 | 0.0 | 0.0 | 0.00 | 0.00 | 0.00 | 71 | 1014.8 |
| 20260901181522 | 66 | 319 | 0.0 | 0.0 | 0.00 | 0.00 | 0.00 | 70 | 1014.6 |
| 20260901180018 | 65 | 319 | 0.0 | 0.0 | 0.00 | 0.00 | 0.00 | 72 | 1014.5 |
| 20260901174517 | 65 | 319 | 0.0 | 0.0 | 0.00 | 0.00 | 0.00 | 73 | 1014.5 |
| 20260901173020 | 64 | 319 | 0.0 | 1.0 | 0.00 | 0.00 | 0.00 | 74 | 1014.2 |
| 20260901171510 | 64 | 319 | 0.0 | 1.0 | 0.00 | 0.00 | 0.00 | 76 | 1014.1 |
| 20260901170009 | 63 | 319 | 0.0 | 0.0 | 0.00 | 0.00 | 0.00 | 78 | 1014.0 |
| 20260901164505 | 62 | 319 | 0.0 | 0.0 | 0.00 | 0.00 | 0.00 | 80 | 1014.2 |